This is the latest recevied weather packets stored in our database for station/object DM4XI-13. If no packets are shown the sender has not sent any weather packets the latest 10 day(s).
| Time | Temp. | Humidity | Pressure | Rain* | Wind** | Luminosity | Snow |
|---|---|---|---|---|---|---|---|
| 1777914200 | 22.22° C | 39% | 1009.2 hPa | 0 mm | 0.89 m/s, 322° | 39 W/m² | - |
| 1777914139 | 22.22° C | 38% | 1009.3 hPa | 0 mm | 0.89 m/s, 305° | 39 W/m² | - |
| 1777914078 | 22.22° C | 38% | 1009.3 hPa | 0 mm | 0.89 m/s, 258° | 40 W/m² | - |
| 1777914017 | 22.22° C | 38% | 1009.4 hPa | 0 mm | 1.34 m/s, 312° | 40 W/m² | - |
| 1777913956 | 22.22° C | 38% | 1009.3 hPa | 0 mm | 0.89 m/s, 3° | 41 W/m² | - |
| 1777913894 | 22.22° C | 38% | 1009.2 hPa | 0 mm | 0.89 m/s, 331° | 41 W/m² | - |
| 1777913834 | 22.22° C | 37% | 1009.4 hPa | 0 mm | 0.89 m/s, 306° | 43 W/m² | - |
| 1777913773 | 22.22° C | 37% | 1009.4 hPa | 0 mm | 1.34 m/s, 312° | 44 W/m² | - |
| 1777913711 | 22.22° C | 38% | 1009.3 hPa | 0 mm | 0.89 m/s, 285° | 46 W/m² | - |
| 1777913651 | 22.22° C | 37% | 1009.3 hPa | 0 mm | 0.45 m/s, 250° | 49 W/m² | - |
| 1777913590 | 22.22° C | 36% | 1009.3 hPa | 0 mm | 1.34 m/s, 320° | 52 W/m² | - |
| 1777913528 | 22.22° C | 37% | 1009.3 hPa | 0 mm | 1.79 m/s, 305° | 56 W/m² | - |
| 1777913468 | 22.78° C | 37% | 1009.3 hPa | 0 mm | 0.89 m/s, 295° | 59 W/m² | - |
| 1777913407 | 22.78° C | 37% | 1009.3 hPa | 0 mm | 0.89 m/s, 333° | 63 W/m² | - |
| 1777913346 | 22.78° C | 37% | 1009.2 hPa | 0 mm | 1.34 m/s, 299° | 66 W/m² | - |
| 1777913285 | 22.78° C | 37% | 1009.3 hPa | 0 mm | 0.89 m/s, 323° | 68 W/m² | - |
| 1777913224 | 22.78° C | 37% | 1009.3 hPa | 0 mm | 0.45 m/s, 233° | 70 W/m² | - |
| 1777913163 | 22.78° C | 38% | 1009.3 hPa | 0 mm | 0.45 m/s, 261° | 72 W/m² | - |
| 1777913102 | 22.78° C | 38% | 1009.4 hPa | 0 mm | 0.89 m/s, 306° | 73 W/m² | - |
| 1777913041 | 22.78° C | 38% | 1009.4 hPa | 0 mm | 0.45 m/s, 250° | 74 W/m² | - |
| 1777912980 | 22.78° C | 38% | 1009.5 hPa | 0 mm | 0 m/s | 75 W/m² | - |
| 1777912918 | 22.78° C | 37% | 1009.3 hPa | 0 mm | 0.89 m/s, 283° | 76 W/m² | - |
| 1777912857 | 22.78° C | 37% | 1009.3 hPa | 0 mm | 0.89 m/s, 281° | 76 W/m² | - |
| 1777912796 | 22.78° C | 37% | 1009.5 hPa | 0 mm | 0.89 m/s, 0° | 76 W/m² | - |
| 1777912736 | 22.78° C | 36% | 1009.5 hPa | 0 mm | 0.89 m/s, 257° | 76 W/m² | - |
* Rain latest hour (hover to see other rain measurements)
** Current wind speed in m/s (hover to see current wind gust speed)